[[{"header":{"parameterUnit":"m.s-1","parameterCategory":2,"la1":30.2991,"la2":30.254,"lo1":-89.0895,"lo2":-89.0444,"dy":0.0017,"dx":0.0017,"nx":28,"ny":28,"refTime":"2023-10-07T21:00:00:Z","depth":"0","parameterNumber":2,"parameterNumberName":"U-component_of_CURRENTS"},"data":[0,0,0,0,0,0,0,0,0,0,0,0,0,0,0,0,0,0,0,0,0,0,0,0,0,0,0,0,0,0,0,0,0,0,0,0,0,0,0,0,0,0,0,0,0,0,0,0,0,0,0,0,0,0,0,0,0,0,0.2096,0.2096,0,0.2111,0.2111,0.2111,0.212,0.2121,0.2121,0.2121,0.2115,0.2115,0.2114,0,0,0,0,0,0,0,0,0,0,0,0,0,0.2068,0.2068,0.2096,0.2096,0.2097,0.2111,0.2111,0.2111,0.212,0.2121,0.2121,0.2121,0.2115,0.2115,0.2114,0,0,0,0,0,0,0,0,0,0,0,0,0,0.2079,0.2068,0.2096,0.2105,0.2106,0.2111,0.2111,0.2111,0.212,0.2121,0.2121,0.2122,0.2115,0.2115,0.2114,0.2101,0,0,0.2112,0.2112,0,0,0,0,0,0,0,0,0.2078,0.208,0.2103,0.2104,0.2106,0.2117,0.2099,0.2108,0.212,0.2112,0.2121,0.2122,0.2115,0.2114,0.2113,0.2101,0.2101,0.2112,0.2112,0.2111,0.2111,0,0,0,0,0,0,0,0.2077,0.2079,0.2099,0.2104,0.2105,0.2106,0.2108,0.2101,0.2108,0.2113,0.2114,0.212,0.2115,0.2114,0.2113,0.2101,0.2112,0.2112,0.2111,0.2111,0.2109,0.2109,0,0,0,0,0,0,0.2081,0.2078,0.2099,0.21,0.2096,0.2107,0.2109,0.2111,0.2109,0.211,0.212,0.2121,0.2114,0.2114,0.2113,0.2127,0.2111,0.2111,0.211,0.2108,0.2109,0.2109,0,0,0,0,0,0,0.208,0.2082,0.2098,0.2092,0.2094,0.2107,0.2109,0.2111,0.2113,0.2115,0.2115,0.2122,0.2115,0.2114,0.2113,0.2126,0.2111,0.211,0.2108,0.2108,0.2109,0.2137,0,0,0,0,0,0,0.2079,0.2082,0.208,0.2092,0.2095,0.2105,0.2109,0.2111,0.2117,0.2118,0.2116,0.2116,0.2115,0.2114,0.2112,0.2125,0.2109,0.2107,0.2108,0.2109,0.2136,0.2138,0.2141,0,0,0,0,0,0.2078,0.2075,0.2079,0.2082,0.2093,0.2106,0.2107,0.2116,0.2117,0.2119,0.2119,0.2116,0.2117,0.2113,0.2111,0.2124,0.2107,0.2108,0.2109,0.2134,0.2138,0.2141,0,0,0,0,0,0,0.2052,0.2076,0.2081,0.2083,0.2096,0.2109,0.211,0.2116,0.2117,0.2116,0.2116,0.2116,0.2123,0.2115,0.2111,0.2125,0.2113,0.2114,0.2134,0.2137,0.2139,0.2174,0.2109,0,0,0,0,0,0.2048,0.2056,0.2076,0.2076,0.2084,0.2096,0.2101,0.2108,0.2114,0.2115,0.2115,0.2116,0.2123,0.2123,0.2124,0.2124,0.2153,0.2132,0.2135,0.2137,0.2164,0.2211,0.2221,0.2111,0.2111,0.2111,0,0,0.2035,0.2051,0.2053,0.2072,0.2081,0.2097,0.2099,0.2108,0.2123,0.2113,0.2124,0.2123,0.2126,0.2134,0.2137,0.2129,0.2182,0.2138,0.214,0.2166,0.2213,0.2224,0.2233,0.2112,0.2112,0.2112,0,0,0.2025,0.2031,0.2042,0.2058,0.2079,0.209,0.2095,0.211,0.2119,0.2127,0.2132,0.2145,0.2138,0.2157,0.2162,0.2178,0.2196,0.2168,0.2208,0.2252,0.2262,0.2271,0.2323,0.2337,0.2167,0.2167,0.2167,0,0.2011,0.2032,0.2044,0.2063,0.2084,0.209,0.2113,0.2119,0.2131,0.2156,0.2134,0.2169,0.2157,0.2203,0.2205,0.2187,0.2217,0.2195,0.2258,0.2268,0.2277,0.2328,0.2343,0.2169,0.2168,0.2168,0.2168,0,0.2018,0.2038,0.2045,0.2078,0.2095,0.2113,0.2136,0.2149,0.2157,0.2178,0.2219,0.2211,0.2245,0.2231,0.222,0.228,0.2283,0.2258,0.2255,0.229,0.2341,0.2356,0.2171,0.217,0.217,0.2169,0,0,0.199,0.2043,0.2047,0.2082,0.2113,0.2135,0.2159,0.2207,0.2251,0.225,0.2315,0.2313,0.2327,0.2335,0.2326,0.2352,0.2425,0.2332,0.2333,0.2393,0.2538,0.2568,0.2587,0.241,0.2412,0.2414,0.2549,0,0.2,0.2052,0.2071,0.2123,0.216,0.2184,0.2219,0.2259,0.2288,0.2344,0.236,0.2407,0.2361,0.2384,0.2405,0.2426,0.2466,0.2392,0.2488,0.2492,0.2522,0.2606,0.2509,0.2623,0.2563,0.2566,0.2568,0,0.201,0.2053,0.2111,0.2189,0.2207,0.2233,0.2318,0.2348,0.242,0.2448,0.2498,0.2514,0.257,0.2512,0.259,0.2546,0.2555,0.2559,0.2564,0.26,0.2551,0.2577,0.2653,0.2606,0.2591,0.2589,0.2587,0,0.2021,0.2085,0.2142,0.2166,0.2242,0.2278,0.2316,0.2386,0.2434,0.2525,0.2575,0.2638,0.2681,0.2703,0.2712,0.2661,0.2799,0.2726,0.277,0.2771,0.2715,0.2708,0.2768,0.2796,0.2796,0.2796,0.2795,0,0.2041,0.209,0.2155,0.2191,0.2259,0.2308,0.2386,0.2432,0.2518,0.2589,0.2635,0.2707,0.273,0.2798,0.2783,0.2851,0.2864,0.2821,0.2824,0.2721,0.2714,0.269,0.2659,0.2801,0.28,0.2799,0.2798,0,0.2049,0.2093,0.2162,0.2245,0.2267,0.2317,0.2403,0.2459,0.2548,0.2643,0.2679,0.2788,0.289,0.2924,0.2985,0.296,0.2941,0.3017,0.2907,0.2895,0.2872,0.2846,0.2844,0.2745,0.3093,0.3095,0.3097,0,0.206,0.2099,0.2182,0.2211,0.2246,0.2319,0.2361,0.2454,0.2514,0.2686,0.2732,0.2882,0.2975,0.3114,0.3118,0.3164,0.3026,0.308,0.2961,0.2909,0.2881,0.2753,0.2657,0.2891,0.2891,0.2891,0.2891,0,0.2073,0.2102,0.2146,0.2204,0.2249,0.2306,0.2378,0.2428,0.2549,0.2643,0.2785,0.2888,0.3064,0.3094,0.3183,0.3172,0.2957,0.3078,0.3041,0.2772,0.2618,0.251,0.2772,0.2888,0.2889,0.2889,0.2889,0.2889,0.2061,0.2083,0.2129,0.2176,0.2224,0.2272,0.2287,0.2379,0.2467,0.257,0.2733,0.2841,0.2978,0.3108,0.3102,0.3054,0.2994,0.2935,0.2924,0.2811,0.2669,0.2955,0.306,0.3062,0.3063,0.3063,0.3064,0,0.2022,0.2046,0.2095,0.2131,0.2147,0.2203,0.227,0.2266,0.232,0.2471,0.2575,0.274,0.282,0.2907,0.2979,0.2906,0.2715,0.2818,0.2587,0.2507,0.279,0.2734,0.2752,0.2752,0.2752,0.2752,0.2752,0.2752,0.1997,0.2006,0.2028,0.2028,0.2055,0.2039,0.2054,0.2075,0.2151,0.2253,0.2353,0.249,0.2769,0.2949,0.2927,0.283,0.2572,0.2491,0.2457,0.2649,0.2656,0.2663,0.2603,0.2593,0.2593,0.2034,0.2031,0.2028]},{"header":{"parameterUnit":"m.s-1","parameterCategory":2,"la1":30.2991,"la2":30.254,"lo1":-89.0895,"lo2":-89.0444,"dy":0.0017,"dx":0.0017,"nx":28,"ny":28,"refTime":"2023-10-07T21:00:00:Z","depth":"0","parameterNumber":3,"parameterNumberName":"V-component_of_CURRENTS"},"data":[0,0,0,0,0,0,0,0,0,0,0,0,0,0,0,0,0,0,0,0,0,0,0,0,0,0,0,0,0,0,0,0,0,0,0,0,0,0,0,0,0,0,0,0,0,0,0,0,0,0,0,0,0,0,0,0,0,0,-0.0307,-0.0308,0,-0.0351,-0.0352,-0.0352,-0.0388,-0.0388,-0.0389,-0.0389,-0.0438,-0.0439,-0.044,0,0,0,0,0,0,0,0,0,0,0,0,0,-0.028,-0.0281,-0.0307,-0.0308,-0.0308,-0.0351,-0.0352,-0.0352,-0.0388,-0.0388,-0.0389,-0.0389,-0.0437,-0.0439,-0.044,0,0,0,0,0,0,0,0,0,0,0,0,0,-0.0306,-0.0281,-0.0307,-0.0331,-0.0333,-0.0351,-0.0352,-0.0352,-0.0388,-0.0388,-0.0389,-0.0389,-0.0437,-0.0438,-0.044,-0.0441,0,0,-0.0445,-0.0445,0,0,0,0,0,0,0,0,-0.0304,-0.0307,-0.0327,-0.0329,-0.0332,-0.0364,-0.036,-0.0382,-0.0388,-0.0368,-0.0389,-0.0389,-0.0412,-0.0416,-0.0425,-0.0443,-0.0445,-0.0445,-0.0446,-0.0446,-0.0447,0,0,0,0,0,0,0,-0.0302,-0.0305,-0.0326,-0.0327,-0.033,-0.0347,-0.0351,-0.0364,-0.0388,-0.037,-0.0372,-0.0375,-0.0414,-0.0423,-0.0426,-0.0446,-0.0445,-0.0446,-0.0447,-0.0448,-0.0461,-0.046,0,0,0,0,0,0,-0.0293,-0.0303,-0.0324,-0.0327,-0.0318,-0.0347,-0.0352,-0.0354,-0.0388,-0.0393,-0.0375,-0.0377,-0.042,-0.0424,-0.0428,-0.0425,-0.0446,-0.0448,-0.0449,-0.0461,-0.0461,-0.046,0,0,0,0,0,0,-0.0292,-0.0295,-0.0322,-0.0316,-0.032,-0.0347,-0.0349,-0.0354,-0.0361,-0.0392,-0.0397,-0.0376,-0.0421,-0.0426,-0.0434,-0.0428,-0.0449,-0.045,-0.0462,-0.0461,-0.046,-0.0424,0,0,0,0,0,0,-0.0292,-0.0294,-0.0291,-0.0315,-0.032,-0.0323,-0.0349,-0.0355,-0.0362,-0.0365,-0.0395,-0.04,-0.0421,-0.0432,-0.0436,-0.043,-0.0451,-0.0463,-0.0462,-0.0461,-0.0426,-0.0422,-0.0418,0,0,0,0,0,-0.029,-0.028,-0.0291,-0.0293,-0.0315,-0.0323,-0.0327,-0.0348,-0.0362,-0.0358,-0.038,-0.0399,-0.0428,-0.0432,-0.0437,-0.0432,-0.0463,-0.0462,-0.0461,-0.0427,-0.0423,-0.0419,0,0,0,0,0,0,-0.0261,-0.0283,-0.0295,-0.0291,-0.0303,-0.0328,-0.0326,-0.0343,-0.0358,-0.0361,-0.0392,-0.0399,-0.0404,-0.042,-0.0424,-0.0432,-0.0448,-0.0448,-0.0421,-0.0417,-0.0413,-0.0428,-0.0452,0,0,0,0,0,-0.0254,-0.0254,-0.0276,-0.027,-0.0275,-0.03,-0.0306,-0.032,-0.0338,-0.0345,-0.0367,-0.0387,-0.0402,-0.041,-0.0425,-0.0428,-0.0461,-0.0427,-0.0424,-0.042,-0.0435,-0.0476,-0.0478,-0.0456,-0.0456,-0.0456,0,0,-0.0241,-0.0251,-0.0252,-0.0264,-0.0276,-0.0278,-0.0304,-0.0307,-0.0311,-0.0347,-0.0355,-0.0374,-0.0399,-0.0405,-0.0409,-0.0418,-0.0439,-0.0419,-0.0416,-0.0433,-0.0475,-0.0477,-0.0479,-0.0455,-0.0455,-0.0455,0,0,-0.0212,-0.0223,-0.0216,-0.0225,-0.0238,-0.0254,-0.0252,-0.0275,-0.0287,-0.0295,-0.0323,-0.0342,-0.0358,-0.0383,-0.0397,-0.0381,-0.0417,-0.0376,-0.0373,-0.0412,-0.0414,-0.0417,-0.0447,-0.0453,-0.0376,-0.0376,-0.0376,0,-0.0195,-0.0195,-0.0212,-0.0208,-0.0215,-0.0241,-0.0237,-0.0249,-0.0272,-0.0284,-0.029,-0.0335,-0.0353,-0.0379,-0.0374,-0.0375,-0.04,-0.0387,-0.0409,-0.0412,-0.0416,-0.0446,-0.0453,-0.0374,-0.0374,-0.0374,-0.0375,0,-0.0168,-0.0168,-0.0161,-0.0171,-0.0175,-0.0174,-0.0196,-0.0202,-0.022,-0.0243,-0.0268,-0.03,-0.0332,-0.0334,-0.0351,-0.0381,-0.0391,-0.0398,-0.0422,-0.0416,-0.0447,-0.0455,-0.0371,-0.0372,-0.0372,-0.0373,0,0,-0.013,-0.0142,-0.014,-0.0143,-0.016,-0.0159,-0.0163,-0.0182,-0.0189,-0.0219,-0.024,-0.0274,-0.0304,-0.0322,-0.0347,-0.0384,-0.0422,-0.04,-0.0403,-0.0435,-0.0504,-0.0494,-0.0502,-0.0433,-0.0434,-0.0435,-0.051,0,-0.0106,-0.0094,-0.0109,-0.0099,-0.0097,-0.0123,-0.0122,-0.0142,-0.0166,-0.0189,-0.0241,-0.0264,-0.0294,-0.0308,-0.0352,-0.0403,-0.0443,-0.0401,-0.0502,-0.0505,-0.0502,-0.0512,-0.0467,-0.0529,-0.0518,-0.052,-0.0521,0,-0.0078,-0.0076,-0.0064,-0.0072,-0.0072,-0.0067,-0.0081,-0.0086,-0.0127,-0.0147,-0.0196,-0.0237,-0.0299,-0.0318,-0.0427,-0.0397,-0.0453,-0.0496,-0.05,-0.0516,-0.0511,-0.0537,-0.0545,-0.0694,-0.0534,-0.0532,-0.0532,0,-0.0046,-0.0046,-0.0036,-0.0039,-0.0047,-0.0043,-0.0046,-0.0072,-0.007,-0.0125,-0.0133,-0.0222,-0.0249,-0.0347,-0.0436,-0.0435,-0.0552,-0.0559,-0.0608,-0.0607,-0.0604,-0.0601,-0.0776,-0.0645,-0.0645,-0.0645,-0.0645,0,-0.0021,-0.0013,-0.0018,-0.001,0.0012,-0.0009,0.0009,-0.0009,-0.0029,-0.0014,-0.0108,-0.0112,-0.0257,-0.0336,-0.0434,-0.0542,-0.0553,-0.062,-0.0633,-0.0587,-0.0581,-0.0738,-0.0829,-0.0648,-0.0647,-0.0646,-0.0646,0,0.0014,0.0004,0.0023,0.0025,0.003,0.0049,0.0064,0.0076,0.0048,0.0063,0.005,-0.0035,-0.0127,-0.0274,-0.0421,-0.0518,-0.0718,-0.0669,-0.0602,-0.0605,-0.0789,-0.0877,-0.1096,-0.116,-0.0746,-0.0747,-0.0747,0,0.0031,0.0045,0.0065,0.0086,0.0091,0.0115,0.0139,0.0122,0.0145,0.013,0.0148,0.0057,0.0035,-0.0195,-0.0387,-0.0572,-0.0723,-0.0675,-0.0673,-0.081,-0.0918,-0.0997,-0.1041,-0.0651,-0.065,-0.065,-0.065,0,0.0074,0.0084,0.0102,0.0152,0.0182,0.0216,0.025,0.0284,0.0282,0.031,0.0345,0.0327,0.0117,-0.0044,-0.0322,-0.0462,-0.0785,-0.0671,-0.0838,-0.0888,-0.0964,-0.1025,-0.059,-0.0646,-0.0646,-0.0646,-0.0646,-0.0647,0.0116,0.0143,0.0177,0.0226,0.0265,0.0327,0.0377,0.0426,0.0498,0.0568,0.0531,0.0555,0.0271,-0.0086,-0.0314,-0.0723,-0.0756,-0.0838,-0.0941,-0.1016,-0.1067,-0.0621,-0.0672,-0.0673,-0.0673,-0.0674,-0.0674,0,0.018,0.0207,0.0252,0.0314,0.0379,0.0381,0.0462,0.0527,0.0648,0.072,0.0779,0.067,0.0331,-0.0067,-0.0606,-0.092,-0.1052,-0.1122,-0.1236,-0.1272,-0.0889,-0.0872,-0.0937,-0.0937,-0.0937,-0.0937,-0.0937,-0.0936,0.0213,0.0275,0.0298,0.0412,0.046,0.0554,0.0614,0.0709,0.0784,0.0893,0.0922,0.0911,0.0593,-0.0364,-0.1092,-0.1271,-0.1504,-0.156,-0.1709,-0.1451,-0.1432,-0.1415,-0.1421,-0.16,-0.1601,-0.2023,-0.2028,-0.2031]}],[{"header":{"parameterUnit":"m.s-1","parameterCategory":2,"la1":30.2991,"la2":30.254,"lo1":-89.0895,"lo2":-89.0444,"dy":0.0017,"dx":0.0017,"nx":28,"ny":28,"refTime":"2023-10-07T21:00:00:Z","depth":"2","parameterNumber":2,"parameterNumberName":"U-component_of_CURRENTS"},"data":[0,0,0,0,0,0,0,0,0,0,0,0,0,0,0,0,0,0,0,0,0,0,0,0,0,0,0,0,0,0,0,0,0,0,0,0,0,0,0,0,0,0,0,0,0,0,0,0,0,0,0,0,0,0,0,0,0,0,0.1996,0.1997,0,0.2014,0.2014,0.2014,0.2028,0.2028,0.2029,0.2029,0.2035,0.2035,0.2035,0,0,0,0,0,0,0,0,0,0,0,0,0,0.197,0.197,0.1996,0.1997,0.1997,0.2014,0.2014,0.2014,0.2028,0.2029,0.2029,0.2029,0.2035,0.2035,0.2035,0,0,0,0,0,0,0,0,0,0,0,0,0,0.1981,0.197,0.1996,0.2008,0.201,0.2014,0.2014,0.2014,0.2028,0.2029,0.2029,0.203,0.2036,0.2035,0.2035,0.2022,0,0,0.2034,0.2034,0,0,0,0,0,0,0,0,0.1981,0.1982,0.2006,0.2007,0.2009,0.2021,0.2007,0.2017,0.2028,0.2018,0.2029,0.203,0.2031,0.2031,0.203,0.2022,0.2022,0.2034,0.2034,0.2034,0.2034,0,0,0,0,0,0,0,0.198,0.1981,0.2001,0.2006,0.2008,0.2011,0.2013,0.2008,0.2019,0.2019,0.2021,0.2027,0.2031,0.203,0.203,0.2022,0.2034,0.2034,0.2034,0.2034,0.2039,0.2039,0,0,0,0,0,0,0.1982,0.198,0.2,0.2001,0.1999,0.2011,0.2013,0.2015,0.2019,0.2021,0.2026,0.2027,0.203,0.203,0.203,0.2051,0.2034,0.2034,0.2033,0.2038,0.2039,0.2039,0,0,0,0,0,0,0.1981,0.1984,0.1999,0.1993,0.1996,0.2011,0.2013,0.2015,0.2022,0.2025,0.2027,0.2033,0.2031,0.2031,0.2036,0.205,0.2033,0.2033,0.2038,0.2038,0.2039,0.2069,0,0,0,0,0,0,0.198,0.1983,0.1983,0.1993,0.1997,0.2008,0.2012,0.2015,0.2025,0.2027,0.2031,0.2032,0.2031,0.2036,0.2036,0.2049,0.2033,0.2037,0.2038,0.2039,0.2068,0.2071,0.2073,0,0,0,0,0,0.1979,0.1978,0.1983,0.1986,0.1997,0.2009,0.201,0.2021,0.2025,0.2029,0.2034,0.2032,0.204,0.2036,0.2035,0.2049,0.2037,0.2038,0.2039,0.2067,0.207,0.2073,0,0,0,0,0,0,0.1959,0.198,0.1986,0.1989,0.2002,0.2013,0.2017,0.2024,0.2029,0.2031,0.2033,0.2034,0.2046,0.2039,0.2035,0.2052,0.2039,0.204,0.2061,0.2064,0.2066,0.2106,0.2033,0,0,0,0,0,0.1957,0.1966,0.1983,0.1984,0.1993,0.2005,0.2011,0.2019,0.2027,0.203,0.2033,0.2037,0.2045,0.2048,0.205,0.2054,0.2084,0.2063,0.2066,0.2068,0.2099,0.2146,0.2157,0.2041,0.2041,0.2041,0,0,0.1947,0.1961,0.1965,0.1982,0.1991,0.2006,0.2009,0.2021,0.2037,0.2029,0.2045,0.2045,0.2048,0.206,0.2064,0.2057,0.2114,0.2069,0.2071,0.2102,0.2148,0.216,0.217,0.2042,0.2042,0.2041,0,0,0.1941,0.1948,0.1958,0.1974,0.1995,0.2005,0.2011,0.2026,0.2039,0.205,0.2055,0.2071,0.2066,0.2085,0.2092,0.2109,0.2127,0.2098,0.2145,0.2189,0.22,0.2209,0.2258,0.2272,0.2099,0.2099,0.2099,0,0.1931,0.1951,0.1961,0.1979,0.2001,0.2007,0.2031,0.2038,0.2052,0.2081,0.2059,0.2097,0.2087,0.2135,0.2138,0.2119,0.2149,0.2131,0.2195,0.2205,0.2215,0.2263,0.2278,0.21,0.21,0.21,0.21,0,0.1938,0.1959,0.1966,0.1997,0.2014,0.2035,0.2056,0.2073,0.2084,0.2106,0.2152,0.2144,0.2181,0.2166,0.2155,0.222,0.2221,0.2194,0.2192,0.2229,0.2276,0.2292,0.2103,0.2102,0.2102,0.2101,0,0,0.1913,0.1965,0.197,0.2005,0.2035,0.2057,0.2085,0.2136,0.2185,0.2184,0.2254,0.2253,0.2269,0.2279,0.2269,0.2297,0.2372,0.2277,0.2278,0.2336,0.2484,0.2467,0.2482,0.2356,0.2359,0.2361,0.249,0,0.1925,0.1975,0.1994,0.2047,0.2083,0.211,0.2147,0.2191,0.2224,0.2285,0.2302,0.2353,0.2306,0.2332,0.2354,0.2373,0.2415,0.2341,0.2433,0.2436,0.2425,0.25,0.228,0.2375,0.2505,0.2507,0.2509,0,0.1935,0.1976,0.2035,0.2114,0.2132,0.2161,0.2253,0.2285,0.2364,0.2396,0.2451,0.2469,0.2527,0.2468,0.2544,0.2501,0.2509,0.2511,0.2515,0.2508,0.2448,0.2359,0.2398,0.2535,0.2533,0.2531,0.2529,0,0.1945,0.2009,0.2068,0.2092,0.2169,0.2211,0.2251,0.2328,0.2379,0.2481,0.2534,0.2599,0.2642,0.2664,0.2667,0.2618,0.275,0.2677,0.2678,0.2676,0.2515,0.2495,0.2751,0.2751,0.275,0.275,0.275,0,0.1966,0.2014,0.2083,0.2119,0.219,0.2241,0.2326,0.2377,0.247,0.2543,0.2597,0.2666,0.2693,0.2757,0.2739,0.2776,0.2814,0.2727,0.2722,0.2517,0.2497,0.2648,0.2635,0.2755,0.2754,0.2753,0.2752,0,0.1972,0.2017,0.2087,0.2174,0.2198,0.2251,0.2341,0.2403,0.25,0.2596,0.2635,0.2746,0.2835,0.2868,0.2925,0.2877,0.2905,0.2907,0.2674,0.264,0.2781,0.2768,0.2924,0.2925,0.2926,0.2926,0.2927,0,0.1982,0.2022,0.2107,0.2136,0.2175,0.2251,0.2296,0.2397,0.2457,0.2632,0.2673,0.2819,0.2879,0.2985,0.2956,0.2973,0.2981,0.2771,0.2632,0.2828,0.2807,0.2792,0.2777,0.2424,0.242,0.2418,0.2415,0,0.1992,0.2024,0.207,0.2128,0.2176,0.2232,0.2305,0.2349,0.2475,0.2566,0.2687,0.2762,0.2885,0.2808,0.2858,0.2822,0.2747,0.2712,0.2996,0.2418,0.2368,0.2343,0.2343,0.2388,0.2391,0.2393,0.2394,0.2395,0.1982,0.2003,0.2054,0.21,0.2148,0.2186,0.2195,0.2275,0.235,0.2425,0.2571,0.2589,0.2629,0.2585,0.2535,0.2507,0.2673,0.2518,0.2522,0.2531,0.2454,0.2407,0.2422,0.2425,0.2427,0.2429,0.2431,0,0.1942,0.1968,0.2016,0.205,0.206,0.2122,0.2171,0.2147,0.2169,0.2263,0.232,0.2155,0.2138,0.2193,0.2112,0.2132,0.2056,0.2044,0.1903,0.1935,0.1962,0.1848,0.166,0.1657,0.1654,0.1652,0,0,0.1916,0.1924,0.1945,0.1936,0.1965,0.1941,0.1942,0.1916,0.1936,0.1898,0.1882,0.2003,0.2115,0.1823,0.1822,0.1726,0.1802,0.1666,0.2294,0.216,0.2182,0.2261,0.2129,0,0,0,0,0]},{"header":{"parameterUnit":"m.s-1","parameterCategory":2,"la1":30.2991,"la2":30.254,"lo1":-89.0895,"lo2":-89.0444,"dy":0.0017,"dx":0.0017,"nx":28,"ny":28,"refTime":"2023-10-07T21:00:00:Z","depth":"2","parameterNumber":3,"parameterNumberName":"V-component_of_CURRENTS"},"data":[0,0,0,0,0,0,0,0,0,0,0,0,0,0,0,0,0,0,0,0,0,0,0,0,0,0,0,0,0,0,0,0,0,0,0,0,0,0,0,0,0,0,0,0,0,0,0,0,0,0,0,0,0,0,0,0,0,0,-0.0132,-0.0132,0,-0.0178,-0.0178,-0.0179,-0.0215,-0.0216,-0.0216,-0.0216,-0.0269,-0.027,-0.0271,0,0,0,0,0,0,0,0,0,0,0,0,0,-0.0101,-0.0101,-0.0131,-0.0132,-0.0133,-0.0177,-0.0178,-0.0179,-0.0215,-0.0216,-0.0216,-0.0216,-0.0269,-0.027,-0.0271,0,0,0,0,0,0,0,0,0,0,0,0,0,-0.0128,-0.0102,-0.0131,-0.0156,-0.0158,-0.0177,-0.0178,-0.0179,-0.0215,-0.0216,-0.0216,-0.0216,-0.0268,-0.027,-0.0271,-0.0273,0,0,-0.0277,-0.0277,0,0,0,0,0,0,0,0,-0.0126,-0.0129,-0.0152,-0.0154,-0.0157,-0.0191,-0.0187,-0.021,-0.0215,-0.0194,-0.0216,-0.0217,-0.0243,-0.0246,-0.0255,-0.0275,-0.0277,-0.0277,-0.0278,-0.0278,-0.0279,0,0,0,0,0,0,0,-0.0124,-0.0128,-0.015,-0.0152,-0.0155,-0.0173,-0.0177,-0.0192,-0.0216,-0.0196,-0.0199,-0.0203,-0.0244,-0.0253,-0.0256,-0.0278,-0.0277,-0.0278,-0.0279,-0.028,-0.0302,-0.0302,0,0,0,0,0,0,-0.0116,-0.0126,-0.0149,-0.0152,-0.0142,-0.0173,-0.0178,-0.018,-0.0216,-0.0221,-0.0202,-0.0204,-0.025,-0.0254,-0.0258,-0.0262,-0.0278,-0.028,-0.0281,-0.0303,-0.0302,-0.0302,0,0,0,0,0,0,-0.0115,-0.0117,-0.0147,-0.0139,-0.0144,-0.0173,-0.0175,-0.018,-0.0192,-0.022,-0.0226,-0.0208,-0.0251,-0.0256,-0.0269,-0.0264,-0.0281,-0.0282,-0.0303,-0.0303,-0.0302,-0.0269,0,0,0,0,0,0,-0.0114,-0.0116,-0.0116,-0.0139,-0.0144,-0.0153,-0.0175,-0.0181,-0.0193,-0.0196,-0.0227,-0.0232,-0.0251,-0.0266,-0.0271,-0.0267,-0.0284,-0.0304,-0.0303,-0.0302,-0.027,-0.0267,-0.0264,0,0,0,0,0,-0.0112,-0.0106,-0.0116,-0.0119,-0.0143,-0.0152,-0.0156,-0.0179,-0.0193,-0.0192,-0.0214,-0.0231,-0.0264,-0.0267,-0.0273,-0.0269,-0.0304,-0.0303,-0.0302,-0.0272,-0.0268,-0.0264,0,0,0,0,0,0,-0.009,-0.011,-0.0121,-0.0121,-0.0134,-0.0158,-0.016,-0.0176,-0.0194,-0.0198,-0.0228,-0.0234,-0.0243,-0.0259,-0.0261,-0.0272,-0.0286,-0.0287,-0.0261,-0.0258,-0.0255,-0.0267,-0.0285,0,0,0,0,0,-0.0085,-0.0086,-0.0107,-0.0105,-0.0111,-0.0136,-0.0143,-0.0158,-0.0176,-0.0185,-0.0207,-0.0228,-0.0242,-0.0252,-0.0267,-0.0274,-0.0302,-0.0274,-0.0271,-0.0268,-0.0281,-0.0318,-0.032,-0.0299,-0.0299,-0.0299,0,0,-0.0076,-0.0086,-0.0087,-0.0101,-0.0114,-0.0115,-0.0141,-0.0148,-0.0152,-0.0187,-0.0198,-0.0217,-0.0241,-0.0249,-0.0254,-0.0262,-0.0286,-0.0267,-0.0264,-0.0279,-0.0318,-0.032,-0.0322,-0.0298,-0.0298,-0.0298,0,0,-0.0054,-0.0067,-0.006,-0.0069,-0.0084,-0.0098,-0.0099,-0.0122,-0.0135,-0.0146,-0.0172,-0.0192,-0.0211,-0.0233,-0.0245,-0.0234,-0.0267,-0.0231,-0.0229,-0.0264,-0.0267,-0.027,-0.0295,-0.03,-0.0231,-0.0231,-0.0231,0,-0.0043,-0.004,-0.0059,-0.0055,-0.006,-0.0088,-0.0082,-0.0097,-0.0122,-0.0134,-0.0143,-0.0187,-0.0206,-0.0227,-0.0226,-0.0228,-0.0252,-0.024,-0.0262,-0.0265,-0.0269,-0.0294,-0.03,-0.023,-0.023,-0.023,-0.023,0,-0.0018,-0.0018,-0.0013,-0.0019,-0.0024,-0.0023,-0.0044,-0.0053,-0.0073,-0.0096,-0.0122,-0.0155,-0.0186,-0.0189,-0.0207,-0.0236,-0.0245,-0.0252,-0.0273,-0.0269,-0.0296,-0.0303,-0.0227,-0.0228,-0.0228,-0.0229,0,0,0.0013,0.0005,0.0007,0.001,-0.0007,-0.0005,-0.0011,-0.0028,-0.0035,-0.0069,-0.0087,-0.0124,-0.0156,-0.0173,-0.0199,-0.0235,-0.0272,-0.0255,-0.0257,-0.0283,-0.0348,-0.0316,-0.0321,-0.0285,-0.0287,-0.0288,-0.0353,0,0.0037,0.0053,0.004,0.0056,0.0062,0.0036,0.0037,0.0017,-0.0011,-0.0034,-0.0085,-0.0111,-0.0144,-0.0161,-0.0203,-0.0252,-0.0292,-0.0254,-0.0347,-0.0349,-0.0325,-0.0329,-0.0294,-0.0346,-0.036,-0.0361,-0.0362,0,0.0065,0.0072,0.0091,0.0093,0.0094,0.0098,0.0088,0.0082,0.0039,0.0015,-0.0035,-0.0079,-0.0138,-0.0165,-0.0266,-0.024,-0.0299,-0.0342,-0.0345,-0.0337,-0.0331,-0.0356,-0.0359,-0.0374,-0.0373,-0.0372,-0.0372,0,0.0102,0.0109,0.0126,0.0125,0.0124,0.0128,0.0125,0.0096,0.0098,0.0038,0.0029,-0.0058,-0.0084,-0.0182,-0.0271,-0.0276,-0.0378,-0.0391,-0.0422,-0.042,-0.0421,-0.0416,-0.0477,-0.0477,-0.0476,-0.0476,-0.0476,0,0.0134,0.0149,0.0145,0.0157,0.0185,0.0165,0.0184,0.0165,0.0142,0.0159,0.0056,0.0058,-0.0091,-0.0163,-0.0264,-0.0354,-0.0373,-0.043,-0.0438,-0.0404,-0.0398,-0.0449,-0.0445,-0.0479,-0.0478,-0.0478,-0.0477,0,0.0175,0.0168,0.0195,0.02,0.0206,0.0227,0.0241,0.0255,0.0219,0.0237,0.0222,0.0141,0.0058,-0.0089,-0.0231,-0.0318,-0.0427,-0.0457,-0.04,-0.0401,-0.0451,-0.0444,-0.0509,-0.0508,-0.0508,-0.0507,-0.0507,0,0.0198,0.0217,0.024,0.0262,0.0267,0.0293,0.0319,0.03,0.0326,0.0313,0.0341,0.0252,0.0243,0.0036,-0.016,-0.0341,-0.0387,-0.0432,-0.044,-0.0454,-0.0457,-0.0451,-0.0445,-0.0428,-0.0428,-0.0427,-0.0426,0,0.0251,0.0259,0.0282,0.0331,0.0363,0.0402,0.0441,0.0481,0.048,0.0509,0.0557,0.0546,0.0349,0.0187,-0.0083,-0.0209,-0.0404,-0.0421,-0.0465,-0.0412,-0.038,-0.0382,-0.0379,-0.042,-0.042,-0.0421,-0.0421,-0.0421,0.0297,0.0326,0.036,0.0409,0.045,0.052,0.0573,0.0633,0.0711,0.0771,0.0748,0.0739,0.0517,0.0201,-0.004,-0.0326,-0.0319,-0.0415,-0.0417,-0.0421,-0.0386,-0.0354,-0.0382,-0.0382,-0.0382,-0.0383,-0.0383,0,0.0361,0.0388,0.0437,0.0501,0.0567,0.0565,0.0663,0.0728,0.0857,0.09,0.0949,0.0775,0.0578,0.0291,-0.0106,-0.0322,-0.0363,-0.0405,-0.0409,-0.0412,-0.0416,-0.0382,-0.0377,-0.0378,-0.0379,-0.0379,0,0,0.0396,0.0459,0.0484,0.0598,0.064,0.0734,0.0797,0.09,0.0956,0.1036,0.1025,0.0985,0.0661,0.0383,0.0073,-0.0161,-0.0244,-0.0211,-0.0188,-0.0158,-0.016,-0.0388,-0.0335,0,0,0,0,0]}],[{"header":{"parameterUnit":"m.s-1","parameterCategory":2,"la1":30.2991,"la2":30.254,"lo1":-89.0895,"lo2":-89.0444,"dy":0.0017,"dx":0.0017,"nx":28,"ny":28,"refTime":"2023-10-07T21:00:00:Z","depth":"4","parameterNumber":2,"parameterNumberName":"U-component_of_CURRENTS"},"data":[0,0,0,0,0,0,0,0,0,0,0,0,0,0,0,0,0,0,0,0,0,0,0,0,0,0,0,0,0,0,0,0,0,0,0,0,0,0,0,0,0,0,0,0,0,0,0,0,0,0,0,0,0,0,0,0,0,0,0.1222,0.1222,0,0.1263,0.1263,0.1263,0.1301,0.1302,0.1302,0.1303,0.1338,0.1338,0.1338,0,0,0,0,0,0,0,0,0,0,0,0,0,0.1173,0.1174,0.1222,0.1222,0.1223,0.1263,0.1263,0.1263,0.1301,0.1302,0.1302,0.1303,0.1337,0.1338,0.1338,0,0,0,0,0,0,0,0,0,0,0,0,0,0.1201,0.1174,0.1222,0.1248,0.125,0.1262,0.1263,0.1264,0.1301,0.1302,0.1303,0.1303,0.1337,0.1338,0.1338,0.1324,0,0,0.134,0.134,0,0,0,0,0,0,0,0,0.1199,0.1202,0.1243,0.1246,0.1249,0.1279,0.1259,0.1284,0.1301,0.128,0.1303,0.1304,0.1318,0.132,0.1324,0.1326,0.1327,0.134,0.134,0.1341,0.1341,0,0,0,0,0,0,0,0.1197,0.1201,0.1236,0.1244,0.1247,0.1256,0.1261,0.1264,0.1292,0.1282,0.1285,0.1292,0.1319,0.1323,0.1325,0.1328,0.134,0.1341,0.1341,0.1341,0.1402,0.1404,0,0,0,0,0,0,0.1194,0.1199,0.1235,0.1238,0.1227,0.1257,0.1262,0.1267,0.1292,0.1298,0.1291,0.1293,0.1322,0.1324,0.1326,0.1383,0.1341,0.1341,0.1342,0.1401,0.1403,0.1404,0,0,0,0,0,0,0.1193,0.1197,0.1233,0.122,0.1226,0.1257,0.1262,0.1268,0.1301,0.13,0.1305,0.1323,0.1322,0.1325,0.1355,0.1382,0.1341,0.1342,0.14,0.1402,0.1403,0.1451,0,0,0,0,0,0,0.1191,0.1196,0.1214,0.122,0.1227,0.1261,0.1262,0.1268,0.1303,0.1307,0.1328,0.133,0.1323,0.1355,0.1356,0.1382,0.1342,0.1398,0.1401,0.1403,0.1448,0.1454,0.146,0,0,0,0,0,0.1189,0.1206,0.1215,0.122,0.1245,0.1262,0.1266,0.1289,0.1304,0.1322,0.1339,0.1331,0.1371,0.1356,0.1357,0.1384,0.1397,0.14,0.1403,0.1445,0.1453,0.146,0,0,0,0,0,0,0.1198,0.1211,0.1221,0.1243,0.1261,0.1269,0.1294,0.1306,0.1333,0.1347,0.1344,0.1347,0.1386,0.1378,0.1362,0.141,0.1384,0.1387,0.1416,0.1423,0.1429,0.1417,0.1343,0,0,0,0,0,0.1206,0.1224,0.1235,0.1258,0.1269,0.1287,0.1303,0.1318,0.1336,0.1351,0.1364,0.138,0.1393,0.1404,0.1415,0.1437,0.1439,0.1457,0.1463,0.1468,0.146,0.1495,0.1504,0.1414,0.1414,0.1414,0,0,0.1216,0.1227,0.1239,0.1262,0.1279,0.1296,0.13,0.1334,0.1353,0.1348,0.1391,0.1404,0.1405,0.1434,0.145,0.1435,0.1499,0.1472,0.1476,0.1465,0.1499,0.1508,0.1516,0.1416,0.1415,0.1415,0,0,0.1233,0.1256,0.1273,0.129,0.1322,0.1328,0.1344,0.1369,0.1391,0.1423,0.1429,0.1456,0.148,0.1482,0.1484,0.1528,0.1532,0.1545,0.1563,0.1598,0.1605,0.1612,0.1641,0.1649,0.1545,0.1545,0.1545,0,0.1248,0.1264,0.1283,0.1304,0.1316,0.1344,0.1359,0.1384,0.1419,0.1431,0.1447,0.1489,0.1495,0.1516,0.1536,0.154,0.1565,0.1534,0.1606,0.1612,0.1618,0.1645,0.1654,0.1548,0.1547,0.1547,0.1547,0,0.1267,0.129,0.1305,0.1332,0.1351,0.1373,0.1398,0.1432,0.146,0.1474,0.1519,0.1535,0.1559,0.157,0.1567,0.1613,0.162,0.1612,0.1585,0.163,0.1656,0.1665,0.1552,0.1551,0.155,0.1549,0,0,0.1263,0.1307,0.1315,0.1328,0.1366,0.1378,0.1417,0.1441,0.1474,0.1513,0.1551,0.1575,0.1599,0.1603,0.1616,0.1639,0.1709,0.1651,0.1652,0.1676,0.1798,0.1701,0.17,0.1727,0.1729,0.173,0.1805,0,0.1269,0.1299,0.1321,0.1352,0.1362,0.1397,0.143,0.1464,0.1498,0.1549,0.1571,0.1614,0.1609,0.1641,0.1668,0.171,0.1732,0.1689,0.1753,0.1755,0.166,0.1707,0.1735,0.1811,0.1813,0.1814,0.1815,0,0.1268,0.1287,0.1314,0.1352,0.1364,0.1398,0.1446,0.1484,0.1549,0.1582,0.1625,0.1651,0.1706,0.1697,0.1775,0.176,0.178,0.1795,0.1799,0.1691,0.1672,0.1754,0.183,0.1829,0.1828,0.1827,0.1826,0,0.1228,0.1277,0.1295,0.131,0.1364,0.1398,0.1441,0.15,0.1537,0.1618,0.1653,0.1714,0.1778,0.1807,0.1843,0.183,0.1923,0.1906,0.1825,0.1819,0.1862,0.1854,0.1939,0.1939,0.1939,0.1938,0.1938,0,0.1195,0.1216,0.1293,0.1301,0.1343,0.1399,0.1459,0.1504,0.1591,0.163,0.1685,0.1714,0.1815,0.1867,0.1876,0.1884,0.1954,0.183,0.1831,0.1883,0.1876,0.1869,0.186,0.1941,0.194,0.194,0.1939,0,0.1137,0.1185,0.1216,0.1293,0.1323,0.1365,0.1467,0.1507,0.1597,0.1658,0.1686,0.1769,0.1836,0.1896,0.1969,0.1929,0.1933,0.1906,0.1969,0.1972,0.1799,0.1792,0.1831,0.1829,0.1826,0.1824,0.1822,0,0.1102,0.1114,0.1203,0.1232,0.1276,0.1353,0.1398,0.1501,0.1535,0.1652,0.1661,0.1766,0.1806,0.1833,0.1905,0.1931,0.1899,0.1896,0.1825,0.179,0.1788,0.1785,0.1781,0.1819,0.1818,0.1817,0.1817,0,0.1033,0.1086,0.1115,0.1174,0.1232,0.1278,0.1353,0.1372,0.1484,0.1579,0.1597,0.1628,0.1713,0.1767,0.1817,0.1813,0.1899,0.1871,0.1875,0.1807,0.1776,0.1775,0.1774,0.1808,0.181,0.181,0.1811,0,0.0993,0.1004,0.1058,0.1103,0.1166,0.1185,0.1234,0.1278,0.1331,0.1462,0.1467,0.157,0.1688,0.1704,0.1728,0.1751,0.1721,0.166,0.1675,0.1685,0.1603,0.1539,0.1502,0,0,0,0,0,0.0941,0.095,0.098,0.1019,0.1077,0.1118,0.1188,0.124,0.1352,0.1332,0.1401,0.1452,0.1513,0.156,0.1557,0.1673,0.1733,0.1662,0.167,0.1762,0.1772,0.1689,0,0,0,0,0,0,0.0904,0.0936,0.0949,0.0942,0.0965,0.101,0.1059,0.1129,0.1119,0.1242,0.1276,0.138,0.1454,0.1514,0.1536,0.1558,0.1536,0.1742,0.1739,0.1757,0.1766,0.1773,0.1692,0,0,0,0,0]},{"header":{"parameterUnit":"m.s-1","parameterCategory":2,"la1":30.2991,"la2":30.254,"lo1":-89.0895,"lo2":-89.0444,"dy":0.0017,"dx":0.0017,"nx":28,"ny":28,"refTime":"2023-10-07T21:00:00:Z","depth":"4","parameterNumber":3,"parameterNumberName":"V-component_of_CURRENTS"},"data":[0,0,0,0,0,0,0,0,0,0,0,0,0,0,0,0,0,0,0,0,0,0,0,0,0,0,0,0,0,0,0,0,0,0,0,0,0,0,0,0,0,0,0,0,0,0,0,0,0,0,0,0,0,0,0,0,0,0,0.0127,0.0127,0,0.0095,0.0095,0.0095,0.0084,0.0084,0.0084,0.0084,0.0071,0.0071,0.007,0,0,0,0,0,0,0,0,0,0,0,0,0,0.0154,0.0154,0.0127,0.0127,0.0127,0.0095,0.0095,0.0094,0.0084,0.0084,0.0084,0.0084,0.0071,0.0071,0.007,0,0,0,0,0,0,0,0,0,0,0,0,0,0.0134,0.0154,0.0127,0.0118,0.0116,0.0095,0.0095,0.0094,0.0083,0.0084,0.0084,0.0084,0.0071,0.0071,0.007,0.0061,0,0,0.0068,0.0067,0,0,0,0,0,0,0,0,0.0135,0.0133,0.0119,0.0118,0.0117,0.0094,0.01,0.0084,0.0083,0.0096,0.0084,0.0084,0.008,0.0079,0.0072,0.006,0.006,0.0068,0.0067,0.0067,0.0067,0,0,0,0,0,0,0,0.0137,0.0134,0.0114,0.0119,0.0117,0.0106,0.0104,0.0096,0.0087,0.0095,0.0094,0.0091,0.008,0.0072,0.0071,0.0059,0.0068,0.0067,0.0066,0.0066,0.0032,0.0031,0,0,0,0,0,0,0.0142,0.0136,0.0115,0.0113,0.0127,0.0106,0.0103,0.0101,0.0087,0.0085,0.009,0.009,0.0074,0.0072,0.0071,0.0068,0.0067,0.0066,0.0066,0.0032,0.0032,0.0031,0,0,0,0,0,0,0.0143,0.0141,0.0117,0.0124,0.012,0.0105,0.0103,0.01,0.0093,0.0084,0.0082,0.0086,0.0074,0.0072,0.0064,0.0067,0.0066,0.0065,0.0033,0.0032,0.0031,0.0056,0,0,0,0,0,0,0.0144,0.0141,0.014,0.0125,0.012,0.0105,0.0102,0.0099,0.0091,0.009,0.008,0.0078,0.0074,0.0065,0.0063,0.0066,0.0065,0.0033,0.0032,0.0032,0.0055,0.0056,0.0056,0,0,0,0,0,0.0145,0.0143,0.0141,0.0138,0.012,0.0105,0.0102,0.0092,0.0091,0.0086,0.008,0.0079,0.0058,0.0064,0.0062,0.0065,0.0034,0.0033,0.0032,0.0055,0.0056,0.0056,0,0,0,0,0,0,0.0151,0.0141,0.0138,0.0133,0.0121,0.0104,0.0099,0.0092,0.0082,0.0083,0.0075,0.0073,0.0065,0.0058,0.0065,0.0049,0.0045,0.0043,0.0063,0.0064,0.0064,0.0103,0.0064,0,0,0,0,0,0.0153,0.0152,0.0138,0.0133,0.0129,0.0114,0.0107,0.01,0.0089,0.0085,0.0076,0.0067,0.0058,0.0056,0.0045,0.004,0.0037,0.0037,0.0038,0.0038,0.0067,0.0054,0.0057,0.0028,0.0028,0.0028,0,0,0.0155,0.0149,0.0148,0.0135,0.0126,0.0125,0.011,0.0101,0.0104,0.0086,0.0085,0.0067,0.0055,0.0048,0.0044,0.0045,0.0039,0.0037,0.0038,0.0067,0.0053,0.0056,0.0059,0.0027,0.0027,0.0027,0,0,0.0162,0.0153,0.0157,0.0149,0.0138,0.013,0.0129,0.0111,0.0108,0.0099,0.0088,0.0078,0.0057,0.0057,0.0053,0.0049,0.0038,0.0033,0.0074,0.006,0.0063,0.0066,0.0046,0.0047,0.0037,0.0037,0.0037,0,0.0165,0.0173,0.0154,0.0156,0.0163,0.0136,0.0149,0.0134,0.0117,0.0129,0.0102,0.0089,0.0068,0.0083,0.0076,0.0053,0.0041,0.0075,0.0063,0.0066,0.0068,0.0048,0.0048,0.0038,0.0038,0.0038,0.0038,0,0.0177,0.0186,0.0187,0.0189,0.0187,0.0192,0.0177,0.0175,0.0164,0.0159,0.0161,0.0126,0.0126,0.0104,0.0089,0.0099,0.0081,0.0062,0.0068,0.0073,0.005,0.0051,0.004,0.0039,0.0039,0.0039,0,0,0.0189,0.0197,0.02,0.0225,0.0213,0.0221,0.0224,0.0239,0.0265,0.0226,0.0257,0.0219,0.0202,0.0197,0.0166,0.0154,0.0138,0.012,0.0118,0.0113,0.0103,0.0067,0.0064,0.0114,0.0115,0.0115,0.0074,0,0.0213,0.0245,0.0237,0.0276,0.03,0.0288,0.0302,0.0308,0.0304,0.0318,0.0287,0.0293,0.0234,0.0234,0.0209,0.0162,0.0144,0.0151,0.0091,0.0089,0.0067,0.0065,0.0117,0.0074,0.0074,0.0074,0.0074,0,0.0239,0.0264,0.0311,0.0356,0.0365,0.0379,0.0427,0.0434,0.044,0.0434,0.0427,0.0397,0.0376,0.0318,0.0247,0.0252,0.0188,0.0143,0.014,0.0109,0.0055,0.0071,0.0075,0.0075,0.0075,0.0075,0.0075,0,0.0292,0.0324,0.0376,0.0387,0.0417,0.0447,0.0464,0.0481,0.0507,0.0515,0.0531,0.0491,0.0471,0.0394,0.0279,0.0267,0.0197,0.0163,0.0073,0.0069,0.0105,0.0103,0.0124,0.0124,0.0124,0.0124,0.0124,0,0.0338,0.038,0.0409,0.044,0.0505,0.0508,0.0576,0.0581,0.0606,0.0642,0.0596,0.0602,0.0489,0.0425,0.0317,0.0194,0.0217,0.0095,0.0063,0.0111,0.011,0.0104,0.0102,0.0122,0.0123,0.0123,0.0123,0,0.0389,0.0406,0.047,0.0517,0.0533,0.0582,0.0637,0.0684,0.0695,0.0738,0.0743,0.0691,0.06,0.0481,0.0352,0.0244,0.0134,0.0084,0.015,0.012,0.0006,0.0006,-0.0011,-0.0012,-0.0014,-0.0015,-0.0015,0,0.0421,0.0459,0.0524,0.0559,0.0583,0.0649,0.0692,0.0723,0.0762,0.0783,0.0799,0.0742,0.0682,0.0482,0.0344,0.015,0.011,0.0049,0.0026,0.0025,-0.0004,-0.0003,-0.0001,-0.0017,-0.0018,-0.0018,-0.0018,0,0.0478,0.0498,0.0546,0.0613,0.0669,0.0735,0.0791,0.0822,0.0852,0.0872,0.0842,0.0743,0.0639,0.0473,0.0325,0.0181,0.0088,0.0035,0.0036,0.0014,0.0017,-0.0011,-0.0008,-0.0023,-0.0022,-0.0022,-0.0021,0,0.0513,0.055,0.0601,0.0658,0.0729,0.0785,0.0819,0.0849,0.0883,0.0886,0.0872,0.0764,0.0702,0.0489,0.0351,0.0208,0.016,0.0096,0.0093,0.0096,0.0128,0.0147,0.0135,0,0,0,0,0,0.054,0.0572,0.0634,0.0695,0.0764,0.0797,0.0866,0.0892,0.0916,0.0896,0.0882,0.078,0.0574,0.0495,0.0346,0.0317,0.0133,0.0134,0.0058,-0.0047,-0.0042,-0.0027,0,0,0,0,0,0,0.0557,0.0614,0.0635,0.0709,0.0748,0.0825,0.0867,0.0887,0.0869,0.0871,0.0769,0.0721,0.053,0.0659,0.0337,0.0296,0.022,0.0046,0.0042,-0.005,-0.0045,-0.0041,-0.0024,0,0,0,0,0]}]]